TimeEDT,TemperatureF,Dew PointF,Humidity,Sea Level PressureIn,VisibilityMPH,Wind Direction,Wind SpeedMPH,Gust SpeedMPH,PrecipitationIn,Events,Conditions,WindDirDegrees,DateUTC
12:53 AM,62.1,59.0,90,29.90,8.0,NNE,5.8,-,N/A,,Overcast,30,2012-10-03 04:53:00
1:53 AM,61.0,59.0,93,29.91,6.0,NE,4.6,-,N/A,,Overcast,50,2012-10-03 05:53:00
2:53 AM,61.0,57.9,90,29.91,6.0,Calm,Calm,-,N/A,,Overcast,0,2012-10-03 06:53:00
3:53 AM,61.0,57.9,90,29.92,5.0,Calm,Calm,-,N/A,,Overcast,0,2012-10-03 07:53:00
4:53 AM,60.1,59.0,96,29.95,2.5,SW,5.8,-,N/A,,Overcast,230,2012-10-03 08:53:00
5:03 AM,60.8,59.0,94,29.95,1.8,SW,4.6,-,N/A,,Overcast,230,2012-10-03 09:03:00
5:27 AM,60.8,59.0,94,29.95,1.0,Calm,Calm,-,N/A,,Overcast,0,2012-10-03 09:27:00
5:53 AM,60.1,59.0,96,29.95,1.0,Calm,Calm,-,N/A,,Overcast,0,2012-10-03 09:53:00
6:21 AM,60.8,60.8,100,29.96,1.5,SSW,3.5,-,N/A,,Overcast,200,2012-10-03 10:21:00
6:31 AM,60.8,60.8,100,29.97,2.5,Calm,Calm,-,N/A,,Overcast,0,2012-10-03 10:31:00
6:43 AM,60.8,60.8,100,29.97,2.5,SSW,4.6,-,N/A,,Overcast,200,2012-10-03 10:43:00
6:51 AM,60.8,60.8,100,29.97,3.0,Calm,Calm,-,0.01,Rain,Light Rain,0,2012-10-03 10:51:00
6:53 AM,61.0,60.1,97,29.97,3.0,Calm,Calm,-,0.01,Rain,Light Rain,0,2012-10-03 10:53:00
7:53 AM,61.0,60.1,97,29.99,3.0,South,4.6,-,0.00,,Overcast,180,2012-10-03 11:53:00
8:53 AM,62.1,60.1,93,30.00,4.0,SSW,5.8,-,N/A,,Overcast,200,2012-10-03 12:53:00
9:53 AM,63.0,60.1,90,30.01,6.0,South,9.2,-,N/A,,Scattered Clouds,190,2012-10-03 13:53:00
10:53 AM,64.9,57.0,75,30.02,10.0,SW,13.8,20.7,N/A,,Partly Cloudy,220,2012-10-03 14:53:00
11:53 AM,64.9,55.0,70,30.03,10.0,SW,16.1,-,N/A,,Overcast,230,2012-10-03 15:53:00
12:53 PM,64.9,55.9,73,30.03,10.0,SSW,12.7,-,N/A,,Overcast,200,2012-10-03 16:53:00
1:53 PM,64.0,55.0,73,30.04,10.0,SSW,13.8,-,N/A,,Overcast,210,2012-10-03 17:53:00
2:23 PM,62.6,53.6,72,30.04,10.0,SSW,15.0,23.0,N/A,,Overcast,210,2012-10-03 18:23:00
2:53 PM,62.1,54.0,75,30.04,10.0,SSW,10.4,-,N/A,,Overcast,200,2012-10-03 18:53:00
3:02 PM,62.6,55.4,77,30.04,10.0,South,11.5,-,N/A,,Overcast,180,2012-10-03 19:02:00
3:53 PM,63.0,55.0,75,30.04,10.0,South,11.5,-,N/A,,Overcast,180,2012-10-03 19:53:00
4:53 PM,64.0,55.0,73,30.04,10.0,South,11.5,-,N/A,,Overcast,190,2012-10-03 20:53:00
5:53 PM,64.9,55.0,70,30.05,10.0,South,9.2,-,N/A,,Mostly Cloudy,190,2012-10-03 21:53:00
6:53 PM,64.0,55.0,73,30.06,10.0,South,5.8,-,N/A,,Overcast,190,2012-10-03 22:53:00
7:53 PM,63.0,55.0,75,30.07,10.0,South,6.9,-,N/A,,Overcast,170,2012-10-03 23:53:00
8:53 PM,62.1,55.0,78,30.08,10.0,South,5.8,-,N/A,,Overcast,170,2012-10-04 00:53:00
9:53 PM,60.1,55.0,83,30.09,10.0,South,4.6,-,N/A,,Overcast,190,2012-10-04 01:53:00
10:53 PM,57.9,54.0,87,30.10,10.0,South,6.9,-,N/A,,Partly Cloudy,180,2012-10-04 02:53:00
11:53 PM,61.0,54.0,78,30.09,10.0,South,6.9,-,N/A,,Overcast,190,2012-10-04 03:53:00